Lexington Weather

Lexington, Massachusetts, USA

22°F
1/21/2021 8:30am 
  • Lexington Conditions: Clear
  • Temperature: 21.7°F / -5.7°CWarmer 0.5°F than last hour.
  • Dew Point: 11.8°FDecreased 0.2°Fsince last hour.
  • Relative Humidity: 65%Decreased 2.0% since last hour.
  • Wind: Wind from W W 1 mph, 10-min avg: Calm, gust: 6 mph
  • Barometer: 29.80 in Steady
  • Visibility: 10 miles
  • Snow Today: Trace
  •   

Regional Weather Roundup
for Boston / Norton, MA

        
000
ASUS41 KBOX 171304
RWRBOX

REGIONAL WEATHER ROUNDUP
NATIONAL WEATHER SERVICE BOSTON/NORTON MA
800 AM EST SUN JAN 17 2021

NOTE:  "FAIR" INDICATES FEW OR NO CLOUDS BELOW 12,000 FEET WITH NO 
SIGNIFICANT WEATHER AND/OR OBSTRUCTIONS TO VISIBILITY.

MAZALL-171400-
EASTERN MASSACHUSETTS
  
CITY           SKY/WX    TMP DP  RH WIND       PRES   REMARKS
BOSTON         PTCLDY    35  24  64 SW21G29   29.38R WCI  24          
BEVERLY        MOCLDY    37  24  59 W15G23    29.35R WCI  28          
LAWRENCE       PTCLDY    36  25  64 W16G33    29.35R WCI  26          
BEDFORD        PTCLDY    36  23  59 W13G20    29.37R WCI  27          
BLUE HILL        N/A     32  23  69 W17G30    29.37R WCI  21          
NORWOOD        CLEAR     37  24  59 W9G20     29.41R WCI  30          
MARSHFIELD     PTCLDY    37  27  65 SW15G23   29.40R WCI  28          
PLYMOUTH       CLEAR     35  25  66 SW18G26   29.42R WCI  24          
TAUNTON        CLEAR     37  24  59 SW12G22   29.43R WCI  29          
NEW BEDFORD    CLEAR     37  25  61 SW14G26   29.45R WCI  28          
$$

MAZALL-171400-
CAPE COD AND THE ISLANDS
  
CITY           SKY/WX    TMP DP  RH WIND       PRES   REMARKS
FALMOUTH       CLEAR     36  25  64 MISG      29.44                   
HYANNIS        CLEAR     38  26  62 W18G29    29.43R WCI  28          
CHATHAM        CLEAR     38  25  59 W14G30    29.45R WCI  30          
NANTUCKET      PTCLDY    39  27  62 W32G41    29.48R WCI  27          
MARTHAS VNYRD  PTCLDY    39  27  62 W20G39    29.48R WCI  29          
$$
 
MAZALL-171400-
CENTRAL AND WESTERN MASSACHUSETTS
  
CITY           SKY/WX    TMP DP  RH WIND       PRES   REMARKS
WORCESTER      CLEAR     32  23  69 W28G41    29.35R WCI  18          
FITCHBURG      PTCLDY    36  23  59 W12G23    29.37R WCI  28          
ORANGE         CLOUDY    35  22  58 SW10G20   29.40R WCI  27          
SPRINGFIELD    CLOUDY    35  23  63 S9        29.43R WCI  27          
WESTFIELD      CLOUDY    34  24  67 S10       29.43R WCI  26          
NORTH ADAMS    CLOUDY    34  23  64 W12       29.41R WCI  25          
PITTSFIELD     CLOUDY    31  22  69 W10       29.40R WCI  22          
$$
 
RIZALL-171400-
RHODE ISLAND
  
CITY           SKY/WX    TMP DP  RH WIND       PRES   REMARKS
PROVIDENCE     PTCLDY    35  24  64 SW20G26   29.46R WCI  24          
NEWPORT        CLEAR     36  25  64 W10G26    29.47R WCI  28          
BLOCK ISLAND   CLEAR     36  26  67 W26G36    29.51R WCI  24          
SMITHFIELD     CLEAR     34  25  69 W14G30    29.42R WCI  25          
WESTERLY       CLEAR     36  25  64 W15G28    29.50R WCI  27          
$$
 
CTZALL-171400-
CONNECTICUT
  
CITY           SKY/WX    TMP DP  RH WIND       PRES   REMARKS
BRADLEY INTL   PTCLDY    34  23  64 SW14      29.46R WCI  25          
HARTFORD       CLEAR     37  22  54 SW12G18   29.50R WCI  29          
BRIDGEPORT     CLEAR     37  27  67 SW14G22   29.55R WCI  28          
DANBURY        CLEAR     33  22  63 SW13G24   29.53R WCI  24          
GROTON         CLEAR     37  26  64 W23G32    29.51R WCI  26          
NEW HAVEN      CLEAR     37  27  67 W12G23    29.53S WCI  29          
CHESTER        FAIR      34  25  69 SW10G18   29.50S WCI  26          
MERIDEN        CLEAR     36  21  54 VRB7G17   29.51R WCI  30          
WILLIMANTIC    CLEAR     34  23  64 SW8       29.48R WCI  27          
OXFORD         CLEAR     32  23  69 W13       29.51R WCI  22          
$$

MEZ002-015-021-024-NHZ003-005-008-011-012-014-VTZ005-008-171400-
NORTHERN NEW ENGLAND
  
CITY           SKY/WX    TMP DP  RH WIND       PRES   REMARKS
PORTLAND ME    MOCLDY    35  28  75 W15G23    29.23R WCI  25          
BANGOR ME      NOT AVBL                                               
CONCORD NH     MOCLDY    35  23  61 W12       29.30R WCI  27          
MANCHESTER NH  MOCLDY    36  23  59 SW10      29.33R WCI  28          
NASHUA NH      MOCLDY    36  26  67 W15G22    29.36R WCI  27          
PORTSMOUTH NH  MOCLDY    36  23  58 W15G26    29.28R WCI  27          
JAFFREY NH     CLOUDY    32  23  69 SW10      29.33R WCI  24          
KEENE NH       CLOUDY    34  24  67 SW12      29.37R WCI  25          
BURLINGTON VT  CLOUDY    35  28  75 SW7       29.28R WCI  29          
MT. WASHINGTON SNOWSHWR  12  12 100 W85G91      N/A  VSB 0   WCI -18  
$$

NYZ052-076-171400-
EASTERN NEW YORK
  
CITY           SKY/WX    TMP DP  RH WIND       PRES   REMARKS
ALBANY         CLOUDY    33  23  66 SW8       29.44R WCI  26          
NEW YORK CITY  PTCLDY    38  23  55 SW17G25   29.60R WCI  28          
$$
 
ANZALL-171400-
MARINE OBSERVATIONS
  
STATION/POSITION TIME  TEMP    WIND        PRES    VSBY  WAVE
                       AIR SEA DIR/SP/G                  HT/PER
                 (UTC) (F)     (DEG/KT/KT) (MB)    (MI)  (FT/S)
BOSTON BUOY      1250   38 43  250/ 25/ 33  995.3R         6/11
BUZZARDS BAY     1200          260/ 37/ 43  997.9R
NANTUCKET SOUND  1250      41  250/ 27/ 35   N/A           4/ 5
MASS BAY-STELLWA 1204   39     250/ 27/ 35  992.1R  1 7/8  8/11
ISLE OF SHOALS   1200   37     250/ 27/ 31  991.0R
S OF BLOCK IS    1226      47                N/A          11/ 8
$$

......................KEY.........................
  SKY/WX - SKY CONDITION/PRESENT WEATHER
  TMP    - TEMPERATURE IN FAHRENHEIT
  DWPT   - DEWPOINT IN FAHRENHEIT
  RH     - RELATIVE HUMIDITY IN PERCENT
  WIND   - DIRECTION AND SPEED IN MPH
  PRES   - MEAN SEA LEVEL PRESSURE IN INCHES OF HG
  WCI    - WIND CHILL INDEX
  VSB    - VISIBILITY IN MILES
  HX     - HEAT INDEX
  TC     - TEMPERATURE IN CELSIUS
  VRB    - VARIABLE WIND DIRECTION
  N/A    - NOT AVAILABLE
  
      

Other recent Regional Weather Roundups

Thu Jan 21, 7:04am

Thu Jan 21, 6:04am

Thu Jan 21, 5:04am

Thu Jan 21, 4:04am

Thu Jan 21, 3:04am

Thu Jan 21, 2:04am

Thu Jan 21, 1:04am

Thu Jan 21, 12:04am

Wed Jan 20, 11:04pm

Wed Jan 20, 10:05pm

Wed Jan 20, 9:04pm

Wed Jan 20, 8:04pm

Wed Jan 20, 7:04pm

Wed Jan 20, 6:05pm

Wed Jan 20, 5:05pm

Wed Jan 20, 1:04pm

Wed Jan 20, 12:04pm

Wed Jan 20, 11:04am

Wed Jan 20, 10:04am

Wed Jan 20, 9:05am

Wed Jan 20, 8:04am

Wed Jan 20, 7:04am

Wed Jan 20, 6:04am

Wed Jan 20, 5:04am

Wed Jan 20, 4:04am

Wed Jan 20, 3:05am

Wed Jan 20, 2:04am

Wed Jan 20, 1:04am

Wed Jan 20, 12:04am

Tue Jan 19, 11:04pm

Tue Jan 19, 10:04pm

Tue Jan 19, 9:04pm

Tue Jan 19, 8:04pm

Tue Jan 19, 7:04pm

Tue Jan 19, 6:05pm

Tue Jan 19, 5:04pm

Tue Jan 19, 4:05pm

Tue Jan 19, 3:04pm

Tue Jan 19, 2:04pm

Tue Jan 19, 1:04pm

Tue Jan 19, 12:05pm

Tue Jan 19, 11:04am

Tue Jan 19, 10:05am

Tue Jan 19, 9:04am

Tue Jan 19, 8:04am

Tue Jan 19, 7:04am

Tue Jan 19, 6:04am

Tue Jan 19, 5:04am

Tue Jan 19, 4:04am

Tue Jan 19, 3:04am

Tue Jan 19, 2:04am

Tue Jan 19, 1:04am

Tue Jan 19, 12:04am

Mon Jan 18, 11:04pm

Mon Jan 18, 10:04pm

Mon Jan 18, 9:04pm

Mon Jan 18, 8:05pm

Mon Jan 18, 7:04pm

Mon Jan 18, 6:05pm

Mon Jan 18, 5:04pm

Mon Jan 18, 4:04pm

Mon Jan 18, 3:04pm

Mon Jan 18, 2:04pm

Mon Jan 18, 1:04pm

Mon Jan 18, 12:04pm

Mon Jan 18, 11:04am

Mon Jan 18, 10:04am

Mon Jan 18, 9:04am

Mon Jan 18, 8:04am

Mon Jan 18, 7:04am

Mon Jan 18, 6:04am

Mon Jan 18, 5:04am

Mon Jan 18, 4:04am

Mon Jan 18, 3:04am

Mon Jan 18, 2:04am

Mon Jan 18, 1:04am

Mon Jan 18, 12:04am

Sun Jan 17, 11:04pm

Sun Jan 17, 10:04pm

Sun Jan 17, 9:04pm

Sun Jan 17, 8:04pm

Sun Jan 17, 7:04pm

Sun Jan 17, 6:04pm

Sun Jan 17, 5:04pm

Sun Jan 17, 4:05pm

Sun Jan 17, 3:04pm

Sun Jan 17, 2:04pm

Sun Jan 17, 1:04pm

Sun Jan 17, 12:04pm

Sun Jan 17, 11:04am

Sun Jan 17, 10:04am

Sun Jan 17, 9:04am

Sun Jan 17, 7:04am

Sun Jan 17, 6:04am

Sun Jan 17, 5:04am

Sun Jan 17, 4:04am

Sun Jan 17, 3:04am

Sun Jan 17, 2:04am

Sun Jan 17, 1:04am

Sun Jan 17, 12:04am

Sat Jan 16, 11:05pm

Sat Jan 16, 10:04pm

Sat Jan 16, 9:04pm

Sat Jan 16, 8:05pm

Sat Jan 16, 7:04pm

Sat Jan 16, 6:04pm

Sat Jan 16, 5:05pm

Sat Jan 16, 4:05pm

Sat Jan 16, 3:05pm

Sat Jan 16, 2:04pm

Sat Jan 16, 1:04pm

Sat Jan 16, 12:04pm

Sat Jan 16, 11:04am

Sat Jan 16, 10:05am

Sat Jan 16, 9:04am

Sat Jan 16, 8:04am

Sat Jan 16, 7:04am

Sat Jan 16, 6:04am

Sat Jan 16, 5:04am

Sat Jan 16, 4:04am

Sat Jan 16, 3:05am

Sat Jan 16, 2:04am

Sat Jan 16, 1:04am

Sat Jan 16, 12:05am

Fri Jan 15, 11:05pm

Fri Jan 15, 10:04pm

Fri Jan 15, 9:04pm

Fri Jan 15, 8:04pm

Fri Jan 15, 7:05pm

Fri Jan 15, 6:05pm

Fri Jan 15, 5:05pm

Fri Jan 15, 4:05pm

Fri Jan 15, 3:04pm

Fri Jan 15, 2:05pm

Fri Jan 15, 1:04pm

Fri Jan 15, 12:05pm

Fri Jan 15, 11:04am

Fri Jan 15, 10:04am

Fri Jan 15, 9:05am

Fri Jan 15, 8:04am

Fri Jan 15, 7:04am

Fri Jan 15, 6:04am

Fri Jan 15, 5:05am

Fri Jan 15, 4:04am

Fri Jan 15, 3:04am

Fri Jan 15, 2:04am

Fri Jan 15, 1:04am

Fri Jan 15, 12:05am

Thu Jan 14, 11:04pm

Thu Jan 14, 10:04pm

Thu Jan 14, 9:04pm

Thu Jan 14, 8:05pm

Thu Jan 14, 7:04pm

Thu Jan 14, 6:04pm

Thu Jan 14, 5:04pm

Thu Jan 14, 4:05pm

Thu Jan 14, 3:04pm

Thu Jan 14, 2:04pm

Thu Jan 14, 1:04pm

Thu Jan 14, 12:05pm

Thu Jan 14, 11:05am

Thu Jan 14, 10:04am

Thu Jan 14, 9:04am

Thu Jan 14, 8:04am

Thu Jan 14, 7:04am

Thu Jan 14, 6:04am

Thu Jan 14, 5:04am

Thu Jan 14, 4:04am

Thu Jan 14, 3:04am

Thu Jan 14, 2:04am

Thu Jan 14, 1:04am

Thu Jan 14, 12:04am

Wed Jan 13, 11:04pm

Wed Jan 13, 10:04pm

Wed Jan 13, 9:04pm

Wed Jan 13, 8:05pm

Wed Jan 13, 7:04pm

Wed Jan 13, 6:04pm

Wed Jan 13, 5:04pm

Wed Jan 13, 4:04pm

Wed Jan 13, 3:05pm

Wed Jan 13, 2:04pm

Wed Jan 13, 1:04pm

Wed Jan 13, 12:04pm

Wed Jan 13, 11:04am

Wed Jan 13, 10:04am

Wed Jan 13, 9:05am

Wed Jan 13, 8:04am

Wed Jan 13, 7:04am

Wed Jan 13, 6:04am

Wed Jan 13, 5:04am

Wed Jan 13, 4:04am

Wed Jan 13, 3:04am

Wed Jan 13, 2:04am

Wed Jan 13, 1:04am

Wed Jan 13, 12:05am

Tue Jan 12, 11:04pm

Tue Jan 12, 10:04pm

Tue Jan 12, 9:04pm

Tue Jan 12, 8:05pm

Tue Jan 12, 7:04pm

Meta data:

ID: 228457ba-cbb5-41d1-a9a8-25ec1d0ed305
Link: https://api.weather.gov/products/228457ba-cbb5-41d1-a9a8-25ec1d0ed305